When you browse on this site, cookies collect data to enhance your experience and personalize the content and advertising you see.
Visit our Privacy Policy to learn more. By continuing to use the site, you agree to this use of cookies and data.
  • In France
  • List of Countries
  • For 7 days
  • Water Temperature
  • Weather Map
  • Weather Widgets
  • user-avatar
    Login

    Hourly Weather Charlottetown

    Today, 9 April, Thursday

    Time Temperature Precipitation Wind Pressure Humidity
    00:00 -3°C° 0 mm 1 mps 752 mmHg 82%
    01:00 -3°C° 0 mm 1 mps 751 mmHg 81%
    02:00 -5°C° 0 mm 2 mps 751 mmHg 79%
    03:00 -5°C° 0 mm 2 mps 751 mmHg 80%
    04:00 -4°C° 0 mm 2 mps 751 mmHg 81%
    05:00 -5°C° 0 mm 3 mps 751 mmHg 82%
    06:00 -4°C° 0 mm 3 mps 751 mmHg 77%
    07:00 -3°C° 0 mm 4 mps 752 mmHg 72%
    08:00 -2°C° 0 mm 4 mps 752 mmHg 67%
    09:00 0°C° 0 mm 3 mps 752 mmHg 63%
    10:00 +1°C° 0 mm 3 mps 752 mmHg 59%
    11:00 +3°C° 0 mm 2 mps 751 mmHg 55%
    12:00 +4°C° 0 mm 2 mps 751 mmHg 51%
    13:00 +4°C° 0 mm 2 mps 751 mmHg 47%
    14:00 +5°C° 0 mm 2 mps 750 mmHg 43%
    15:00 +3°C° 0 mm 3 mps 750 mmHg 47%
    16:00 +3°C° 0 mm 4 mps 749 mmHg 51%
    17:00 +1°C° 0 mm 5 mps 749 mmHg 55%
    18:00 +1°C° 0 mm 6 mps 749 mmHg 57%
    19:00 -1°C° 0 mm 6 mps 748 mmHg 60%
    20:00 -2°C° 0 mm 6 mps 748 mmHg 63%
    21:00 -3°C° 0.6 mm 7 mps 747 mmHg 72%
    22:00 -5°C° 0.6 mm 8 mps 747 mmHg 81%
    23:00 -6°C° 0.6 mm 8 mps 746 mmHg 89%

    Tomorrow, 10 April, Friday

    Time Temperature Precipitation Wind Pressure Humidity
    00:00 -6°C° 1.7 mm 9 mps 744 mmHg 90%
    01:00 -7°C° 1.7 mm 11 mps 742 mmHg 90%
    02:00 -6°C° 1.7 mm 12 mps 739 mmHg 91%
    03:00 -6°C° 1.9 mm 12 mps 737 mmHg 93%
    04:00 -5°C° 1.9 mm 12 mps 735 mmHg 94%
    05:00 -3°C° 1.9 mm 12 mps 733 mmHg 96%
    06:00 -2°C° 0.2 mm 10 mps 732 mmHg 95%
    07:00 -1°C° 0.2 mm 9 mps 731 mmHg 93%
    08:00 -1°C° 0.2 mm 7 mps 730 mmHg 92%
    09:00 0°C° 0 mm 8 mps 730 mmHg 89%
    10:00 0°C° 0 mm 9 mps 730 mmHg 86%
    11:00 +1°C° 0 mm 10 mps 729 mmHg 84%
    12:00 +1°C° 0.1 mm 10 mps 729 mmHg 81%
    13:00 +2°C° 0.1 mm 10 mps 729 mmHg 78%
    14:00 +2°C° 0.1 mm 11 mps 729 mmHg 75%
    15:00 +2°C° 0.1 mm 10 mps 729 mmHg 75%
    16:00 +1°C° 0.1 mm 10 mps 729 mmHg 76%
    17:00 +1°C° 0.1 mm 10 mps 729 mmHg 77%
    18:00 0°C° 0.3 mm 9 mps 729 mmHg 82%
    19:00 -1°C° 0.3 mm 9 mps 730 mmHg 88%
    20:00 -2°C° 0.3 mm 8 mps 730 mmHg 93%
    21:00 -2°C° 0.1 mm 8 mps 731 mmHg 93%
    22:00 -3°C° 0.1 mm 9 mps 731 mmHg 92%
    23:00 -3°C° 0.1 mm 9 mps 731 mmHg 92%

    Day after tomorrow, 11 April, Saturday

    Time Temperature Precipitation Wind Pressure Humidity
    00:00 -4°C° 0.1 mm 9 mps 732 mmHg 92%
    01:00 -4°C° 0.1 mm 9 mps 733 mmHg 91%
    02:00 -5°C° 0.1 mm 9 mps 733 mmHg 91%
    03:00 -5°C° 0.2 mm 9 mps 734 mmHg 89%
    04:00 -4°C° 0.2 mm 8 mps 735 mmHg 87%
    05:00 -4°C° 0.2 mm 8 mps 736 mmHg 84%
    06:00 -4°C° 0 mm 9 mps 736 mmHg 83%
    07:00 -3°C° 0 mm 9 mps 737 mmHg 81%
    08:00 -3°C° 0 mm 10 mps 738 mmHg 79%
    09:00 -1°C° 0 mm 9 mps 739 mmHg 76%
    10:00 0°C° 0 mm 9 mps 740 mmHg 73%
    11:00 0°C° 0 mm 9 mps 740 mmHg 70%
    12:00 +1°C° 0.1 mm 9 mps 741 mmHg 69%
    13:00 +1°C° 0.1 mm 9 mps 742 mmHg 69%
    14:00 +1°C° 0.1 mm 9 mps 743 mmHg 68%
    15:00 +1°C° 0 mm 8 mps 744 mmHg 67%
    16:00 +1°C° 0 mm 8 mps 745 mmHg 66%
    17:00 +2°C° 0 mm 7 mps 745 mmHg 66%
    18:00 0°C° 0 mm 7 mps 746 mmHg 70%
    19:00 -1°C° 0 mm 6 mps 747 mmHg 73%
    20:00 -2°C° 0 mm 6 mps 749 mmHg 77%
    21:00 -2°C° 0 mm 6 mps 749 mmHg 78%
    22:00 -2°C° 0 mm 7 mps 750 mmHg 78%
    23:00 -3°C° 0 mm 7 mps 750 mmHg 78%

    12 April, Sunday

    Time Temperature Precipitation Wind Pressure Humidity
    00:00 -3°C° 0 mm 7 mps 751 mmHg 78%
    01:00 -3°C° 0 mm 7 mps 752 mmHg 79%
    02:00 -4°C° 0 mm 8 mps 753 mmHg 79%
    03:00 -4°C° 0 mm 8 mps 754 mmHg 80%
    04:00 -5°C° 0 mm 8 mps 755 mmHg 80%
    05:00 -5°C° 0 mm 8 mps 756 mmHg 81%
    06:00 -3°C° 0 mm 7 mps 757 mmHg 77%
    07:00 -2°C° 0 mm 7 mps 758 mmHg 74%
    08:00 -2°C° 0 mm 7 mps 759 mmHg 71%
    09:00 -1°C° 0 mm 7 mps 760 mmHg 67%
    10:00 +1°C° 0 mm 6 mps 761 mmHg 63%
    11:00 +2°C° 0 mm 6 mps 761 mmHg 58%
    12:00 +3°C° 0 mm 6 mps 762 mmHg 56%
    13:00 +4°C° 0 mm 6 mps 762 mmHg 53%
    14:00 +4°C° 0 mm 6 mps 763 mmHg 51%
    15:00 +4°C° 0 mm 6 mps 764 mmHg 53%
    16:00 +5°C° 0 mm 5 mps 764 mmHg 54%
    17:00 +5°C° 0 mm 5 mps 765 mmHg 56%
    18:00 +3°C° 0 mm 5 mps 765 mmHg 63%
    19:00 +3°C° 0 mm 4 mps 766 mmHg 71%
    20:00 +1°C° 0 mm 4 mps 766 mmHg 78%
    21:00 +1°C° 0 mm 4 mps 767 mmHg 79%
    22:00 +1°C° 0 mm 5 mps 768 mmHg 80%
    23:00 0°C° 0 mm 5 mps 768 mmHg 81%

    13 April, Monday

    Time Temperature Precipitation Wind Pressure Humidity
    00:00 0°C° 0 mm 5 mps 768 mmHg 84%
    01:00 0°C° 0 mm 4 mps 768 mmHg 86%
    02:00 -1°C° 0 mm 4 mps 768 mmHg 89%
    03:00 -1°C° 0 mm 4 mps 768 mmHg 88%
    04:00 -1°C° 0 mm 4 mps 768 mmHg 87%
    05:00 -1°C° 0 mm 4 mps 768 mmHg 87%
    06:00 0°C° 0 mm 4 mps 768 mmHg 81%
    07:00 +1°C° 0 mm 4 mps 768 mmHg 76%
    08:00 +2°C° 0 mm 5 mps 769 mmHg 71%
    09:00 +5°C° 0 mm 5 mps 768 mmHg 68%
    10:00 +6°C° 0 mm 5 mps 768 mmHg 65%
    11:00 +8°C° 0 mm 6 mps 768 mmHg 62%
    12:00 +8°C° 0 mm 6 mps 768 mmHg 62%
    13:00 +9°C° 0 mm 7 mps 768 mmHg 62%
    14:00 +9°C° 0 mm 7 mps 767 mmHg 62%
    15:00 +7°C° 0.4 mm 8 mps 767 mmHg 68%
    16:00 +6°C° 0.4 mm 8 mps 766 mmHg 75%
    17:00 +5°C° 0.4 mm 8 mps 766 mmHg 81%
    18:00 +5°C° 0.2 mm 9 mps 765 mmHg 81%
    19:00 +5°C° 0.2 mm 10 mps 764 mmHg 82%
    20:00 +5°C° 0.2 mm 10 mps 762 mmHg 82%
    21:00 +6°C° 0.4 mm 11 mps 761 mmHg 85%
    22:00 +7°C° 0.4 mm 11 mps 760 mmHg 88%
    23:00 +8°C° 0.4 mm 12 mps 759 mmHg 91%

    14 April, Tuesday

    Time Temperature Precipitation Wind Pressure Humidity
    00:00 +8°C° 0.2 mm 11 mps 758 mmHg 90%
    01:00 +8°C° 0.2 mm 11 mps 757 mmHg 90%
    02:00 +8°C° 0.2 mm 10 mps 756 mmHg 90%
    03:00 +9°C° 0 mm 10 mps 756 mmHg 90%
    04:00 +9°C° 0 mm 10 mps 755 mmHg 91%
    05:00 +10°C° 0 mm 9 mps 755 mmHg 91%
    06:00 +9°C° 0 mm 10 mps 754 mmHg 90%
    07:00 +11°C° 0 mm 10 mps 754 mmHg 90%
    08:00 +11°C° 0 mm 10 mps 753 mmHg 89%
    09:00 +12°C° 0 mm 10 mps 753 mmHg 86%
    10:00 +13°C° 0 mm 10 mps 752 mmHg 84%
    11:00 +14°C° 0 mm 10 mps 752 mmHg 81%
    12:00 +13°C° 0.1 mm 9 mps 752 mmHg 81%
    13:00 +13°C° 0.1 mm 8 mps 751 mmHg 82%
    14:00 +13°C° 0.1 mm 8 mps 751 mmHg 82%
    15:00 +12°C° 0 mm 8 mps 751 mmHg 69%
    16:00 +11°C° 0 mm 9 mps 751 mmHg 57%
    17:00 +9°C° 0 mm 10 mps 751 mmHg 44%
    18:00 +7°C° 0 mm 9 mps 752 mmHg 49%
    19:00 +5°C° 0 mm 9 mps 753 mmHg 54%
    20:00 +2°C° 0 mm 9 mps 753 mmHg 59%
    21:00 +2°C° 0 mm 8 mps 754 mmHg 61%
    22:00 +3°C° 0 mm 7 mps 755 mmHg 63%
    23:00 +3°C° 0 mm 5 mps 755 mmHg 64%
    Show more